Regional Weather Roundup
Issued by NWS New Orleans/Baton Rouge, LA

Home | Current Version | Previous Version | Text Only | Print | Product List | Glossary Off
Versions: 1 2 3 4 5 6 7 8 9 10 11 12 13 14 15 16 17 18 19 20 21 22 23 24 25 26 27 28 29 30 31 32 33 34 35 36 37 38 39 40 41 42 43 44 45 46 47 48 49 50

796
ASUS44 KLIX 211110
RWRLIX
NEW ORLEANS REGIONAL WEATHER ROUNDUP
NATIONAL WEATHER SERVICE NEW ORLEANS LA
600 AM CDT MON APR 21 2014

NOTE: "FAIR" INDICATES FEW OR NO CLOUDS BELOW 12,000 FEET WITH NO
      SIGNIFICANT WEATHER AND/OR OBSTRUCTIONS TO VISIBILITY.
      SKY/WX - SKY CONDITION AND SIGNIFICANT WEATHER.
      TMP - AIR TEMPERATURE.     DP    - DEWPOINT TEMPERATURE.
      RH  - RELATIVE HUMIDITY.   PRES  - PRESSURE.
      HI  - HEAT INDEX.          WCI   - WIND CHILL INDEX.

*  THESE STATIONS ARE NOT NWS OR FAA STATIONS AND ARE NOT UNDER
   NWS QUALITY CONTROL.

LAZ038-040-048-061>063-065>067-069-211200-
SOUTHEAST LOUISIANA

CITY           SKY/WX    TMP DP  RH WIND       PRES   REMARKS
N.O. AUDUBON   NOT AVBL
N.O. INTL ARPT PTCLDY    60  57  89 CALM      30.13S
N.O. LAKEFRONT CLEAR     61  57  87 CALM      30.14R
N.O. DOWNTOWN*   N/A     63  54  72 CALM      30.14S
SLIDELL        MOCLDY    53  51  93 CALM      30.14R
BATON ROUGE    CLOUDY    65  61  87 SE6       30.12S FOG
BOOTHVILLE     MOCLDY    60  57  89 CALM      30.14R
BELLE CHASSE   CLEAR    N/A N/A N/A CALM      30.13S FOG
BOGALUSA*      FOG       56  53  91 CALM      30.16R VSB 3/4
GALLIANO*      SUNNY     56  54  94 CALM      30.13F
NEW ROADS*     FOG       62  61  97 SE6       30.12S VSB 1/4
GONZALES*        N/A     61  61 100 CALM      30.12S
HAMMOND*       CLEAR     61  57  88 CALM      30.15S
HOUMA*           N/A     58  56  93 E3        30.12F FOG
PORT FOURCHON* SUNNY     64  59  82 NE5       30.15S

$$

MSZ070-080>082-211200-
SOUTHERN MISSISSIPPI

CITY           SKY/WX    TMP DP  RH WIND       PRES   REMARKS
MCCOMB         CLOUDY    61  59  93 SE5       30.14R
GULFPORT       CLEAR     57  53  86 CALM      30.14R
BILOXI         CLEAR     57  57 100 N2        30.14R
PASCAGOULA     PTCLDY    52  52 100 CALM      30.14S FOG

$$

COASTAL OBSERVATIONS
LAKE AND NEARSHORE STATIONS

STATION/POSITION TIME  TEMP    WIND        PRES    WAVE
                       AIR SEA DIR/SP/G            HT/PER
                 (UTC) (F)     (DEG/KT/KT) (MB)    (FT/S)
PASCAGOULA       1100   58     360/  2/  3 1019.8
WAVELAND YACHT   1100   59 70  330/  2/  4 1019.7
GRAND ISLE       1100   64 69   60/  5/  7 1020.8
SOUTHWEST PASS   1100   63 58   20/  6/  7 1020.4
NEW CANAL        1100   62 67  160/  2/  2 1020.8
SHELL BEACH      1100   63 67  170/  2/  2 1020.4

OFFSHORE STATIONS

STATION/POSITION TIME  TEMP    WIND        PRES    WAVE
                       AIR SEA DIR/SP/G            HT/PER
                 (UTC) (F)     (DEG/KT/KT) (MB)    (FT/S)
64 S DAUPHIN ISL 1007   63 70  130/  4/  6 1020.3

$$




USA.gov is the U.S. government's official web portal to all federal, state and local government web resources and services.